EW4799 Weather Reports


time (UTC)temp
F
wind
direction
speed
knots
gust
knots
rain 1hr
in
rain 24hr
in
rain mn
in
humidity
%
barometer
mb
20260507213054 65 0 0.0 2.6 0.00 0.00 0.00 55 1019.5
20260507211556 65 0 0.9 2.6 0.00 0.00 0.00 53 1019.7
20260507210100 67 186 0.0 3.5 0.00 0.00 0.00 54 1019.8
20260507204552 65 162 0.0 2.6 0.00 0.00 0.00 55 1019.9
20260507203058 65 0 0.9 4.3 0.00 0.00 0.00 54 1020.1
20260507201552 63 0 0.0 2.6 0.00 0.00 0.00 58 1020.2
20260507200051 63 150 0.0 1.7 0.00 0.00 0.00 58 1020.3
20260507194556 62 0 0.0 0.9 0.00 0.00 0.00 61 1020.4
20260507193050 60 0 0.0 1.7 0.00 0.00 0.00 63 1020.5
20260507191554 60 214 0.0 1.7 0.00 0.00 0.00 64 1020.6
20260507190054 60 0 0.0 1.7 0.00 0.00 0.00 63 1020.7
20260507184555 59 0 0.0 0.9 0.00 0.00 0.00 65 1020.7
20260507183053 58 0 0.0 1.7 0.00 0.00 0.00 66 1020.9
20260507181551 58 0 0.0 0.9 0.00 0.00 0.00 66 1021.0
20260507180100 58 0 0.0 1.7 0.00 0.00 0.00 68 1021.0
20260507174606 57 0 0.0 1.7 0.00 0.00 0.00 69 1021.2
20260507173050 56 165 0.0 1.7 0.00 0.00 0.00 71 1021.2
20260507171603 55 156 0.0 1.7 0.00 0.00 0.00 72 1021.1
20260507170051 55 0 0.0 1.7 0.00 0.00 0.00 74 1021.1
20260507164553 54 174 0.0 2.6 0.00 0.00 0.00 74 1021.2
20260507163053 54 0 0.0 1.7 0.00 0.00 0.00 75 1021.1
20260507161602 54 181 0.9 3.5 0.00 0.00 0.00 75 1021.4
20260507160054 54 185 0.0 1.7 0.00 0.00 0.00 76 1021.5
20260507154551 53 175 0.9 2.6 0.00 0.00 0.00 78 1021.6
20260507153101 53 176 0.0 1.7 0.00 0.00 0.00 79 1021.6
20260507151549 52 0 0.0 1.7 0.00 0.00 0.00 80 1021.6
20260507150051 52 0 0.0 0.9 0.00 0.00 0.00 82 1021.6
20260507144554 51 0 0.0 0.9 0.00 0.00 0.00 83 1021.6
20260507143052 51 0 0.0 0.9 0.00 0.00 0.00 84 1021.6
20260507141551 50 0 0.0 0.0 0.00 0.00 0.00 85 1021.6
20260507140107 50 0 0.0 0.0 0.00 0.00 0.00 85 1021.4
20260507134549 49 0 0.0 0.9 0.00 0.00 0.00 86 1021.4
20260507133055 48 0 0.0 0.0 0.00 0.00 0.00 87 1021.3
20260507131552 48 0 0.0 0.0 0.00 0.00 0.00 87 1021.3
20260507130104 48 0 0.0 0.9 0.00 0.00 0.00 87 1021.4
20260507124624 48 0 0.0 0.9 0.00 0.00 0.00 87 1021.2
20260507123052 49 0 0.0 0.0 0.00 0.00 0.00 86 1021.2
20260507121551 50 0 0.0 0.0 0.00 0.00 0.00 86 1021.1
20260507120050 51 0 0.0 0.0 0.00 0.00 0.00 85 1021.2
20260507114608 51 0 0.0 0.0 0.00 0.00 0.00 85 1021.3
20260507113056 52 0 0.0 0.0 0.00 0.00 0.00 85 1021.4
20260507111553 52 0 0.0 0.0 0.00 0.00 0.00 85 1021.6
20260507110057 52 0 0.0 0.0 0.00 0.00 0.00 84 1021.7
20260507104557 52 0 0.0 0.0 0.00 0.00 0.00 83 1021.6
20260507103055 52 0 0.0 0.0 0.00 0.00 0.00 83 1021.8
20260507101557 53 0 0.0 0.0 0.00 0.00 0.00 83 1021.8
20260507100055 52 0 0.0 1.7 0.00 0.00 0.00 83 1021.8
20260507094554 52 0 0.0 0.9 0.00 0.00 0.00 84 1021.9
20260507093053 52 0 0.0 0.0 0.00 0.00 0.00 84 1021.8
20260507091553 52 0 0.0 0.9 0.00 0.00 0.00 84 1021.7
20260507090055 52 0 0.0 0.9 0.00 0.00 0.00 84 1021.7
20260507084553 52 0 0.0 0.9 0.00 0.00 0.00 85 1021.7
20260507083050 52 0 0.0 1.7 0.00 0.00 0.00 85 1021.7
20260507081549 52 0 0.0 1.7 0.00 0.00 0.00 86 1021.6
20260507080054 52 205 0.0 1.7 0.00 0.00 0.00 86 1021.6
20260507074606 52 217 0.0 0.9 0.00 0.00 0.00 86 1021.6
20260507073052 52 210 0.0 1.7 0.00 0.00 0.00 86 1021.7
20260507071556 52 194 0.0 1.7 0.00 0.00 0.00 86 1021.5
20260507070114 52 0 0.0 0.9 0.00 0.00 0.00 86 1021.6
20260507064613 53 0 0.0 0.9 0.00 0.00 0.00 86 1021.5
20260507063057 53 0 0.0 1.7 0.00 0.00 0.00 86 1021.5
20260507061600 54 0 0.0 0.9 0.00 0.00 0.00 85 1021.6
20260507060059 54 0 0.0 2.6 0.00 0.00 0.00 84 1021.6
20260507054600 55 195 0.0 1.7 0.00 0.00 0.00 83 1021.7
20260507053102 55 0 0.0 0.9 0.00 0.00 0.00 83 1021.6
20260507051600 55 167 0.0 0.9 0.00 0.00 0.00 83 1021.7
20260507050058 55 0 0.0 0.0 0.00 0.00 0.00 83 1021.6
20260507044559 55 0 0.0 0.9 0.00 0.00 0.00 83 1021.5
20260507043056 55 0 0.0 1.7 0.00 0.00 0.00 82 1021.5
20260507041552 56 0 0.0 1.7 0.00 0.00 0.00 80 1021.5
20260507040109 56 0 0.0 1.7 0.00 0.00 0.00 79 1021.5
20260507034557 56 0 0.0 1.7 0.00 0.00 0.00 78 1021.3
20260507033050 57 168 0.0 1.7 0.00 0.00 0.00 77 1021.3
20260507031554 57 0 0.0 2.6 0.00 0.00 0.00 76 1021.0
20260507030054 57 0 0.0 1.7 0.00 0.00 0.00 76 1020.9
20260507024556 57 0 0.0 1.7 0.00 0.00 0.00 76 1021.0
20260507023051 57 0 0.0 1.7 0.00 0.00 0.00 75 1020.8
20260507021551 57 194 0.0 1.7 0.00 0.00 0.00 75 1020.7
20260507020054 58 214 0.0 1.7 0.00 0.00 0.00 75 1020.8
20260507014556 58 0 0.0 0.9 0.00 0.00 0.00 75 1020.8
20260507013109 58 0 0.0 2.6 0.00 0.00 0.00 75 1020.8
20260507011551 58 218 0.0 1.7 0.00 0.00 0.00 75 1020.8
20260507004554 58 233 0.0 1.7 0.00 0.00 0.00 75 1020.9
20260507003053 58 166 0.9 2.6 0.00 0.00 0.00 74 1021.0
20260507001558 58 190 0.0 4.3 0.00 0.00 0.00 74 1020.9
20260507000052 58 148 0.0 3.5 0.00 0.00 0.00 74 1021.0
20260506234551 58 148 0.9 3.5 0.00 0.00 0.00 72 1020.9
20260506233104 58 169 0.9 2.6 0.00 0.00 0.00 72 1020.9
20260506231553 58 160 0.0 3.5 0.00 0.00 0.00 73 1021.1
20260506230053 58 0 0.0 1.7 0.00 0.00 0.00 73 1021.1
20260506224554 57 275 0.0 2.6 0.00 0.00 0.00 74 1021.1
20260506223054 57 0 0.0 2.6 0.00 0.00 0.00 75 1021.2
20260506221558 57 0 0.0 2.6 0.00 0.00 0.00 74 1021.3
20260506220053 58 0 0.0 2.6 0.00 0.00 0.00 74 1021.3
20260506214553 57 204 0.0 1.7 0.00 0.00 0.00 74 1021.4